Regional Weather Roundup
Issued by NWS Spokane, WA

Home | Current Version | Previous Version | Text Only | Print | Product List | Glossary On
Versions: 1 2 3 4 5 6 7 8 9 10 11 12 13 14 15 16 17 18 19 20 21 22 23 24 25 26 27 28 29 30 31 32 33 34 35 36 37 38 39 40 41 42 43 44 45 46 47 48 49 50
094
NZUS01 KOTX 280210
RWROTX
EASTERN WASHINGTON/NORTHERN IDAHO ROUNDUP
NATIONAL WEATHER SERVICE, SPOKANE WA
700 PM PDT FRI MAY 27 2016

Note: "fair" indicated few or no clouds below 12,000 feet with no
significant weather and/or obstructions to visibility.

...NORTHEAST WASHINGTON AND NORTHERN IDAHO PANHANDLE...

CITY           SKY/WX    TMP DP  RH WIND       PRES   REMARKS
SPOKANE INTL   MOSUNNY   60  25  26 S13       29.96S
SPOKANE DOWNTO PTSUNNY   61  30  31 S14       29.97R
COEUR D ALENE  PTSUNNY   59  34  38 S14       29.95R
DEER PARK      CLOUDY    59  30  33 S9        29.96S
SANDPOINT      MOSUNNY   54  43  66 CALM      29.97S
BONNERS FERRY  CLOUDY    54  41  62 S3        29.97S

...SOUTHEAST WASHINGTON AND SOUTHERN IDAHO PANHANDLE...

CITY           SKY/WX    TMP DP  RH WIND       PRES   REMARKS
WALLA WALLA    MOSUNNY   63  34  33 SW7       30.00S
PULLMAN/MOSCOW CLOUDY    56  31  38 W10       30.02S
LEWISTON       CLOUDY    59  36  42 W15G22    29.99R
LOWELL           N/A     55  45  68 CALM      29.99S

...COLUMBIA BASIN...

CITY           SKY/WX    TMP DP  RH WIND       PRES   REMARKS
EPHRATA        PTSUNNY   65  27  23 W17       29.94S
MOSES LAKE     PTSUNNY   66  28  24 W17       29.95S
TRI CITIES     MOSUNNY   69  28  21 W12       29.97S
HERMISTON      SUNNY     66  37  34 W18       29.99R
PENDLETON      MOSUNNY   64  30  27 W14       30.00S

...EAST SLOPES CASCADES...

CITY           SKY/WX    TMP DP  RH WIND       PRES   REMARKS
THE DALLES     MOSUNNY   62  39  42 NW15G21   30.08S
YAKIMA         MOSUNNY   64  33  31 NW10      30.01R
ELLENSBURG     SUNNY     56  36  47 W24G33    30.02R
STAMPEDE PASS  PTSUNNY   41  34  76 VRB3      30.07F
WENATCHEE      SUNNY     62  29  28 NW24      29.97R
OMAK           PTSUNNY   65  31  28 N12       29.91S

...SOUTHERN BRITISH COLUMBIA...

CITY           SKY/WX    TMP DP  RH WIND       PRES   REMARKS
PENTICTON      PTSUNNY   59  43  55 N5        29.94R
CASTLEGAR      PTSUNNY   54  48  82 N6        29.95R
CRANBROOK      MOSUNNY   52  36  54 S15       29.89R

...WESTERN MONTANA...

CITY           SKY/WX    TMP DP  RH WIND       PRES   REMARKS
MISSOULA       PTSUNNY   57  34  41 NW14      29.97R

...NEIGHBORING CITIES...

CITY           SKY/WX    TMP DP  RH WIND       PRES   REMARKS
SEATTLE        PTSUNNY   59  41  51 SW13      30.12S



USA.gov is the U.S. government's official web portal to all federal, state and local government web resources and services.